Vertical_Velocity
-1 -1 -1 -0 -0 -1 -0 -0 -1 -1 1 -0 0 1 1 -0 2 1 0 -0 1 -2 -1 -1 -1 1 -1 6 3 -1 0 -0 2 6 -2 -3 4 2 2 1 8 13 -7 1 -4 -0 -4
1 -0 -0 -1 0 0 -1 -0 0 -1 0 -1 -1 -0 0 1 -0 0 -2 -1 1 -1 -2 -3 -3 -2 -6 -5 17 -7 1 -1 1 3 1 10 -6 -1 3 1 13 -3 2 -4 2 -3 3
-0 -1 2 -1 -1 -1 1 -0 0 -1 1 -1 -1 -1 -1 -3 -2 -1 -1 -0 1 -2 0 -0 -1 -4 -13 7 10 -2 -1 1 3 -1 -3 3 6 21 5 -3 -9 -2 10 -2 -5 -6 -7
-2 2 -1 1 -2 -0 1 0 -1 -0 1 -0 -2 -0 0 -2 -0 -1 -3 0 -1 -1 -1 -2 -3 4 2 6 6 -7 -8 -7 1 -5 -0 -4 1 11 15 -5 -11 9 13 7 -3 2 -17
-0 -1 0 1 -0 -1 0 1 1 0 -0 -1 -1 -3 1 -1 -1 -1 -1 1 -1 -3 -1 -3 -4 8 5 2 -15 -6 4 -1 -2 5 3 -4 -2 -1 -4 2 -0 1 -2 2 -12 -1 2
1 -3 -0 0 1 0 -0 -0 -0 -0 -1 -1 -1 -2 -1 -4 -2 2 -0 -0 -1 -5 -4 -2 0 3 -15 -0 2 -7 2 2 2 -4 1 3 1 3 1 4 -3 -1 2 -3 1 -7 -6
-0 1 -3 1 0 0 -2 1 -2 -0 -1 -2 -1 2 -2 -2 0 -1 -3 -2 -4 -5 -24 -1 12 1 6 -3 24 -18 -22 -16 -13 -8 -1 -5 2 -1 -2 -0 -0 2 2 2 -4 -6 4
-0 1 -2 1 -1 2 -0 -1 -1 -2 -1 -3 -1 -0 -3 -1 -0 -4 2 -11 -1 -1 5 3 3 -4 3 8 -15 -4 -13 -12 -2 1 -6 -12 0 5 1 0 4 0 2 -5 -6 -2 2
1 -1 -1 -0 0 -0 1 -1 -0 -2 -0 -1 -3 -2 -1 -2 -1 -3 -3 -3 -1 -1 3 3 4 -5 -5 -3 8 5 -5 -2 3 -4 -0 5 -0 -1 2 -4 2 -2 4 -1 8 -4 -3
-2 0 -1 -1 -0 -1 1 1 -1 -2 -1 -2 -3 -4 -1 -4 0 -0 -7 -1 -1 -2 1 5 -5 -15 8 -6 3 8 9 -1 -7 6 2 3 -0 2 -1 2 0 -0 2 4 1 1 -1
-2 2 -3 -1 -1 2 -0 2 -1 -1 -2 -3 -1 0 -6 -4 -0 -7 2 -2 -2 -2 -0 2 0 -2 20 -16 14 -18 6 -5 3 3 5 0 -2 -2 -1 3 4 -4 3 5 3 2 9
1 0 -1 -0 0 0 -1 2 -3 -2 2 -2 -2 -0 -4 -1 -2 2 2 -2 -4 4 -1 0 3 -2 -8 -6 -3 -9 -3 0 9 -1 -8 7 -2 3 6 1 5 2 -5 -4 0 5 7
2 -1 -1 -0 -0 -0 -1 1 -1 0 -0 -2 -1 0 -5 -3 -2 1 2 -1 4 -6 -1 -0 0 -1 0 -0 -6 -3 -2 -6 -3 -6 -5 -9 -5 -5 -2 -4 -6 -3 -3 -4 -3 0 3
2 -0 -1 -0 -2 -2 0 -1 2 -2 -2 -2 -1 -0 -0 1 -0 -1 -0 4 -10 3 2 -0 1 -3 0 1 -2 -3 -3 -1 -1 -4 1 3 -23 -2 -10 12 9 1 10 4 2 1 -3
4 -2 -1 -0 -3 -2 -1 -1 2 -1 -1 -2 -2 -3 -5 -5 -1 -1 -0 -6 6 2 4 1 -7 -2 -2 -4 2 -2 1 1 1 0 -3 2 -8 -18 5 0 13 -10 1 3 1 -1 5
2 -2 -1 -0 -2 -2 -3 -0 1 -0 -1 -1 -1 -2 -6 -3 -5 1 -7 -0 -0 0 0 -0 2 1 1 -1 -4 -1 -0 8 1 2 2 -5 -4 -1 -12 -4 -5 6 3 -9 -5 -1 -2
-0 -2 0 -2 -2 -1 -3 -0 0 -2 -2 0 -2 6 -2 -3 -7 -18 -2 3 0 1 -1 2 1 -0 3 3 5 -1 -2 6 -1 -3 1 3 4 -18 -0 -1 5 -7 -4 -5 1 -1 0
-1 -0 -1 -4 1 -2 -3 2 -0 -4 -1 2 -3 -2 -7 -2 -10 0 -0 1 -1 -0 -2 0 3 1 2 1 0 1 3 5 1 6 1 3 2 -0 2 4 -2 -1 1 1 2 -6 -1
-2 0 -2 -3 1 -2 0 1 0 -2 -2 -4 -4 -1 -5 -4 -2 0 4 1 -1 -2 1 -1 1 2 1 1 -3 1 -0 8 -1 -2 6 1 -3 -2 3 8 -1 -2 0 1 0 1 -1
-1 -1 -0 -1 -2 -1 1 0 0 -2 -3 -5 -1 0 -2 -13 3 -7 -1 2 1 -1 3 0 2 -4 -3 -1 -2 -2 -2 -3 2 1 1 -1 -0 1 4 4 4 -3 -2 -1 2 -0 1
-1 -6 2 -0 -2 -1 0 0 -2 -1 -2 -3 -0 2 0 2 1 -1 -4 -0 -0 -0 -0 1 -4 -1 2 -0 -2 0 -1 -6 -5 -1 -1 -4 1 -2 1 1 -2 1 1 -0 -2 3 -0
-4 -2 1 -1 -1 1 1 -0 -2 -1 -2 -4 -6 -6 -0 -1 1 -4 0 0 0 -1 -0 0 -3 0 1 -2 -0 -1 4 0 3 -10 -1 -3 -4 -1 1 1 -1 -0 -0 -0 -0 -1 -1
-0 0 -1 -1 -0 -1 -1 -1 -2 -2 -1 -1 -1 2 -7 -0 1 -2 1 1 0 -1 2 -3 1 -0 -1 4 2 3 3 -0 -3 -1 -0 -1 0 1 2 -0 1 1 -1 1 -0 -0 0
-2 1 -2 -1 -1 -1 -1 -1 -1 -1 1 -1 -3 -6 -4 1 -2 1 -0 -1 0 1 -2 -2 -0 -3 6 -4 1 2 -1 -1 -1 0 1 -1 -0 1 -0 -1 -3 -7 -0 -0 2 -2 -0
-8 2 -3 -0 -2 -0 1 -0 -0 -2 -1 -2 -5 -4 -4 0 -3 2 -0 -0 1 -1 -1 0 1 -3 -3 1 1 1 2 -2 -1 -1 -1 -2 -1 -3 -4 0 -3 -0 -1 -4 -6 -9 -1
-2 -0 -0 -2 -1 1 0 -1 -1 -0 -1 2 -3 -1 -4 -14 1 -1 -0 -1 0 0 2 3 -3 -2 3 1 0 -1 -0 -0 -5 -11 0 -2 -2 -6 -3 -0 -1 -6 1 -1 -2 -9 -1
-3 1 2 -3 1 2 -1 -1 -1 -1 -1 1 -2 -2 -4 -10 -2 -2 -0 -2 -1 -1 -0 -0 -3 -3 2 -1 -1 -1 -0 -3 -3 0 -2 -2 -3 -3 -1 -1 -7 -2 1 -1 -18 -23 -0
0 1 0 -2 1 -1 -1 -1 -1 -0 1 -1 -3 -1 -3 -6 0 0 -3 -1 -0 -3 -0 -1 -4 -3 -2 -3 -2 -0 -1 -1 -3 -2 -3 -2 -4 -1 -3 -3 -11 -1 1 -13 -11 -3 -2
1 1 -1 1 1 -1 -1 -1 -1 -1 -0 -1 -1 -1 -1 -6 -2 3 -3 -0 -1 -4 -3 -1 -2 -1 -1 -3 -1 -1 0 0 -2 -3 -1 -10 -10 -8 -11 -11 -2 -3 -5 -2 -1 -0 -2
Height
1511 1508 1505 1502 1499 1496 1494 1492 1490 1488 1485 1482 1479 1476 1472 1468 1463 1458 1454 1449 1446 1443 1441 1439 1437 1438 1440 1446 1453 1451 1448 1446 1444 1444 1443 1446 1447 1447 1442 1436 1436 1430 1427 1425 1424 1424 1423
1510 1508 1505 1502 1499 1497 1495 1493 1491 1488 1485 1482 1479 1476 1472 1468 1463 1458 1453 1450 1446 1443 1441 1439 1438 1440 1442 1450 1455 1451 1448 1445 1443 1443 1443 1443 1443 1442 1438 1434 1432 1426 1422 1419 1419 1418 1418
1510 1508 1505 1502 1500 1498 1496 1494 1491 1489 1486 1483 1480 1476 1472 1467 1462 1458 1453 1449 1446 1444 1442 1440 1440 1441 1445 1456 1455 1451 1448 1446 1444 1442 1441 1442 1443 1442 1435 1431 1425 1425 1418 1414 1412 1415 1414
1510 1507 1505 1502 1500 1498 1496 1494 1492 1489 1486 1483 1480 1475 1471 1466 1462 1458 1453 1449 1447 1445 1444 1443 1443 1445 1452 1455 1454 1449 1446 1443 1442 1440 1440 1439 1439 1437 1436 1433 1427 1427 1422 1418 1408 1408 1406
1509 1507 1504 1502 1500 1499 1497 1495 1493 1490 1487 1483 1480 1475 1471 1466 1462 1457 1453 1450 1448 1446 1446 1445 1447 1448 1456 1455 1451 1451 1447 1442 1440 1439 1438 1438 1438 1436 1436 1436 1433 1426 1418 1416 1410 1408 1404
1509 1507 1504 1502 1501 1499 1497 1495 1493 1490 1487 1483 1479 1475 1470 1466 1462 1458 1453 1450 1448 1449 1447 1448 1451 1453 1458 1459 1455 1451 1447 1443 1441 1437 1436 1436 1437 1436 1433 1433 1425 1423 1417 1415 1410 1405 1407
1508 1506 1504 1502 1501 1499 1497 1495 1493 1490 1486 1482 1479 1474 1470 1465 1462 1458 1454 1449 1452 1453 1453 1460 1465 1465 1465 1461 1458 1454 1450 1444 1442 1438 1438 1436 1437 1440 1433 1442 1441 1439 1435 1427 1423 1416 1416
1509 1505 1504 1503 1501 1500 1497 1495 1492 1489 1486 1482 1478 1474 1470 1466 1461 1458 1454 1452 1457 1461 1462 1464 1464 1465 1464 1461 1459 1457 1454 1449 1445 1444 1440 1440 1437 1436 1435 1436 1433 1428 1427 1429 1426 1419 1418
1509 1505 1503 1502 1501 1499 1497 1494 1492 1489 1486 1481 1477 1473 1470 1465 1462 1458 1455 1457 1457 1458 1459 1466 1466 1466 1465 1462 1463 1460 1457 1454 1449 1449 1450 1449 1443 1439 1438 1437 1434 1432 1436 1431 1428 1422 1416
1508 1505 1502 1502 1502 1500 1497 1494 1491 1489 1485 1480 1476 1472 1469 1465 1464 1460 1458 1458 1457 1457 1456 1469 1469 1471 1467 1459 1462 1464 1460 1460 1456 1456 1451 1448 1441 1442 1442 1439 1445 1447 1436 1430 1426 1429 1434
1506 1504 1503 1502 1502 1499 1497 1494 1491 1488 1484 1479 1475 1472 1469 1465 1465 1461 1461 1457 1457 1458 1454 1475 1474 1474 1470 1470 1471 1468 1462 1458 1458 1460 1456 1454 1448 1444 1442 1446 1442 1441 1430 1429 1425 1424 1423
1505 1503 1502 1501 1501 1499 1496 1494 1490 1487 1483 1478 1475 1471 1469 1467 1464 1463 1458 1457 1458 1455 1484 1478 1478 1476 1472 1472 1472 1470 1465 1459 1460 1461 1457 1456 1447 1443 1446 1445 1441 1436 1433 1429 1421 1418 1430
1504 1502 1501 1501 1500 1498 1495 1492 1489 1485 1481 1477 1474 1471 1468 1466 1464 1461 1458 1458 1455 1465 1476 1484 1483 1477 1473 1474 1473 1469 1467 1464 1473 1472 1468 1458 1452 1447 1446 1450 1440 1437 1441 1446 1436 1426 1417
1501 1501 1500 1499 1499 1497 1495 1491 1488 1484 1480 1476 1473 1472 1470 1467 1464 1461 1459 1459 1470 1479 1486 1486 1485 1477 1476 1475 1475 1473 1472 1471 1473 1478 1476 1475 1465 1453 1453 1451 1445 1441 1442 1444 1440 1434 1426
1500 1500 1499 1498 1498 1496 1494 1490 1486 1482 1478 1475 1471 1470 1469 1466 1464 1462 1462 1471 1491 1493 1494 1492 1482 1480 1482 1479 1477 1478 1476 1473 1477 1481 1493 1483 1471 1459 1452 1443 1442 1440 1441 1438 1449 1431 1427
1499 1498 1497 1497 1496 1495 1492 1488 1485 1481 1476 1473 1471 1470 1470 1467 1464 1463 1467 1484 1493 1495 1495 1491 1488 1485 1489 1485 1484 1483 1477 1478 1481 1482 1483 1483 1480 1458 1449 1446 1442 1442 1450 1448 1447 1459 1440
1498 1496 1496 1495 1494 1493 1490 1486 1483 1479 1475 1472 1470 1472 1473 1470 1467 1467 1479 1491 1493 1495 1496 1496 1494 1492 1490 1491 1491 1487 1479 1488 1486 1486 1483 1481 1480 1463 1455 1464 1466 1455 1475 1470 1467 1459 1455
1496 1495 1494 1494 1494 1492 1488 1485 1481 1478 1474 1472 1471 1474 1474 1472 1473 1480 1490 1492 1496 1497 1497 1495 1494 1493 1497 1496 1493 1491 1489 1490 1492 1488 1487 1481 1480 1478 1471 1473 1476 1476 1488 1488 1481 1469 1474
1493 1493 1492 1492 1492 1490 1487 1484 1480 1477 1473 1472 1474 1477 1477 1473 1480 1489 1492 1495 1498 1499 1498 1497 1497 1499 1501 1498 1508 1493 1491 1490 1491 1490 1491 1487 1481 1483 1466 1473 1470 1482 1492 1493 1489 1485 1481
1489 1491 1490 1491 1489 1488 1485 1482 1479 1476 1474 1474 1476 1479 1482 1482 1485 1487 1493 1497 1498 1500 1499 1498 1499 1502 1503 1503 1501 1503 1497 1495 1495 1494 1491 1489 1484 1489 1486 1493 1496 1499 1500 1497 1489 1485 1498
1487 1489 1489 1489 1487 1486 1484 1481 1478 1475 1474 1474 1477 1484 1485 1488 1491 1492 1494 1500 1501 1502 1501 1499 1501 1506 1508 1515 1507 1503 1502 1501 1497 1498 1495 1497 1497 1496 1502 1503 1504 1508 1507 1507 1505 1506 1504
1484 1487 1487 1487 1485 1484 1483 1480 1477 1474 1473 1474 1478 1482 1487 1492 1493 1496 1499 1504 1504 1505 1504 1503 1509 1508 1506 1514 1514 1519 1510 1506 1512 1503 1503 1502 1503 1496 1504 1504 1506 1516 1514 1510 1512 1514 1512
1483 1484 1485 1485 1484 1483 1481 1478 1475 1473 1472 1473 1476 1481 1484 1493 1494 1497 1503 1504 1505 1507 1506 1508 1508 1509 1509 1511 1512 1511 1510 1510 1512 1514 1514 1514 1514 1502 1489 1499 1503 1516 1527 1519 1515 1519 1523
1480 1482 1483 1483 1482 1481 1479 1477 1474 1473 1472 1472 1474 1479 1483 1494 1493 1497 1502 1504 1506 1507 1509 1509 1508 1510 1512 1510 1510 1511 1512 1512 1512 1513 1512 1519 1520 1502 1502 1506 1519 1520 1518 1519 1518 1516 1518
1477 1480 1481 1481 1480 1479 1477 1476 1474 1473 1472 1472 1473 1476 1480 1492 1495 1501 1503 1505 1506 1508 1508 1508 1508 1510 1508 1509 1510 1510 1512 1514 1512 1512 1512 1511 1518 1519 1510 1503 1519 1518 1520 1526 1530 1521 1514
1474 1477 1478 1479 1478 1477 1476 1475 1475 1474 1473 1474 1474 1475 1477 1486 1499 1500 1502 1504 1505 1507 1508 1508 1507 1507 1507 1506 1505 1514 1520 1519 1522 1517 1508 1509 1512 1521 1522 1520 1522 1521 1519 1520 1522 1530 1511
1472 1474 1476 1476 1476 1475 1475 1475 1475 1474 1474 1475 1475 1476 1478 1485 1496 1498 1500 1503 1504 1507 1508 1506 1507 1506 1506 1505 1512 1522 1521 1524 1533 1529 1527 1525 1528 1529 1527 1533 1528 1518 1518 1520 1528 1521 1509
1470 1472 1473 1474 1474 1474 1474 1475 1475 1475 1475 1476 1476 1477 1479 1483 1494 1495 1497 1501 1502 1505 1506 1506 1509 1507 1506 1511 1511 1515 1521 1526 1531 1531 1534 1537 1545 1530 1533 1540 1532 1513 1518 1525 1509 1505 1505
1467 1470 1471 1471 1472 1473 1474 1474 1475 1475 1476 1476 1477 1479 1480 1482 1493 1496 1498 1499 1500 1502 1504 1504 1506 1507 1507 1510 1512 1515 1519 1524 1527 1530 1527 1533 1530 1533 1528 1517 1506 1506 1504 1504 1503 1502 1501